Location: �chenoz-la-M�line
(47.6009°N, 6.1354°E)
Time: 06:22:43
(UTC+00:00)

CZ-2C R/B - Visible Passes

Search period start: 11 May 2021 00:00
Search period end: 21 May 2021 00:00
Orbit: 784 x 871 km, 98.2° (Epoch: 10 May)

Date Brightness Start Highest point End Pass type
(mag) Time Alt. Az. Time Alt. Az. Time Alt. Az.
11 May 5.5 20:03:54 10° NNW 20:07:54 22° WNW 20:11:57 10° WSW visible
12 May 5.0 19:44:54 10° N 19:49:29 29° WNW 19:54:08 10° WSW visible
14 May 6.3 20:51:00 10° NW 20:51:41 10° NW 20:52:23 10° WNW visible
15 May 5.8 20:30:39 10° NNW 20:33:24 14° NW 20:36:11 10° W visible
16 May 5.6 20:11:20 10° NNW 20:15:04 19° WNW 20:18:50 10° WSW visible
17 May 5.3 19:52:16 10° N 19:56:41 26° WNW 20:01:08 10° WSW visible
20 May 6.0 20:38:19 10° NNW 20:40:32 13° NW 20:42:46 10° WNW visible
